Location: Boiro
(42.6475°N, 8.8834°W)
Time: 03:06:43
(UTC+02:00)

Oscar 11 - Visible Passes

Search period start: 24 April 2024 00:00
Search period end: 04 May 2024 00:00
Orbit: 604 x 613 km, 97.7° (Epoch: 23 April)

Date Brightness Start Highest point End Pass type
(mag) Time Alt. Az. Time Alt. Az. Time Alt. Az.
24 Apr 10.0 05:11:14 10° ENE 05:12:16 11° E 05:13:18 10° ESE visible
24 Apr 7.0 06:44:21 10° N 06:48:38 68° WNW 06:52:52 10° SSW visible
25 Apr 9.7 05:23:45 10° NE 05:26:19 15° E 05:28:52 10° SE visible
25 Apr 7.4 06:58:21 10° N 07:02:29 47° WNW 07:06:35 10° SW visible
26 Apr 9.3 05:37:00 10° NE 05:40:19 21° E 05:43:36 10° SE visible
27 Apr 8.8 05:50:30 10° NE 05:54:18 30° E 05:58:03 10° SSE visible
28 Apr 8.2 06:04:08 10° NNE 06:08:13 42° E 06:12:16 10° S visible
29 Apr 7.5 06:17:51 10° NNE 06:22:07 61° E 06:26:20 10° S visible
30 Apr 7.1 06:31:40 10° NNE 06:35:58 87° E 06:40:14 10° SSW visible
01 May 9.9 05:12:10 10° ENE 05:13:28 11° E 05:14:46 10° ESE visible
01 May 7.1 06:45:33 10° N 06:49:48 65° WNW 06:54:01 10° SSW visible
02 May 9.7 05:24:47 10° NE 05:27:28 16° E 05:30:05 10° SE visible
03 May 9.3 05:38:02 10° NE 05:41:24 22° E 05:44:45 10° SE visible
